Regional Weather Roundup
Issued by NWS

Home | Current Version | Previous Version | Text Only | Print | Product List | Glossary Off
Versions: 1 2 3 4 5 6 7 8 9 10 11 12 13 14 15 16 17 18 19 20 21 22 23 24 25 26 27 28 29 30 31 32 33 34 35 36 37 38 39 40 41 42 43 44 45 46 47 48 49 50

000
ASUS43 KMKX 310810
RWRWI

WISCONSIN REGIONAL WEATHER ROUNDUP
NATIONAL WEATHER SERVICE MILWAUKEE/SULLIVAN WI
200 AM CST SAT JAN 31 2015

NOTE: "FAIR" INDICATES FEW OR NO CLOUDS BELOW 12,000 FEET WITH NO
SIGNIFICANT WEATHER AND/OR OBSTRUCTIONS TO VISIBILITY.

WIZ001-002-006>008-014>016-023>028-310900-
NORTHWEST WISCONSIN

CITY           SKY/WX    TMP DP  RH WIND       PRES   REMARKS
SUPERIOR ARPT  CLOUDY    19  12  72 CALM      30.14R
ASHLAND        CLOUDY    20  13  74 SW6       30.12F WCI  12
HAYWARD        CLOUDY    20  12  71 S3        30.11S
SIREN          CLOUDY    22  16  78 CALM      30.11F
CUMBERLAND     CLOUDY    19  12  73 CALM      30.11S
RICE LAKE      CLOUDY    19  11  72 SE3       30.14S
CHETEK         CLOUDY    18  10  73 CALM      30.13F
LADYSMITH      CLOUDY    19  10  68 S5        30.14F WCI  12
EAU CLAIRE     CLOUDY    20  10  65 CALM      30.14F
MENOMONIE      CLOUDY    22  15  74 E3        30.15S
NEW RICHMOND   CLOUDY    25  19  79 S3        30.13S
OSCEOLA        CLOUDY    25  20  82 CALM      30.15F
$$

WIZ003>005-009-010-017-018-310900-
NORTH CENTRAL WISCONSIN

CITY           SKY/WX    TMP DP  RH WIND       PRES   REMARKS
MANITOWISH WTR CLOUDY    16   9  73 SW5       30.06F WCI   9
ARBOR VITAE    CLOUDY    17   9  71 S3        30.07F
WOODRUFF       CLOUDY    17   9  71 S3        30.07F
RHINELANDER    CLOUDY    16   6  65 SW8       30.08F WCI   5
EAGLE RIVER    CLOUDY    16   5  63 CALM      30.07F
LAND O LAKES   CLOUDY    16   8  70 SW3       30.08F
PHILLIPS       CLOUDY    19  10  70 SW3       30.09F
TOMAHAWK       CLOUDY    16   7  68 CALM      30.11F
MEDFORD        CLOUDY    17   9  69 S7        30.11F WCI   8
MERRILL        CLOUDY    18   8  66 SW6       30.12F WCI  10
$$

WIZ029-030-035-036-043>047-310900-
CENTRAL WISCONSIN

CITY           SKY/WX    TMP DP  RH WIND       PRES   REMARKS
WAUSAU         CLOUDY    17   7  64 SW5       30.14F WCI  10
MOSINEE        CLOUDY    18  10  73 S6        30.16S WCI   9
MARSHFIELD     CLOUDY    17   8  67 S3        30.15F
STEVENS POINT  CLOUDY    17   9  71 CALM      30.18S
WAUPACA        CLOUDY    19  10  66 CALM      30.21F
WAUTOMA        MOCLDY    10   6  84 CALM      30.21F
WISC RAPIDS    CLOUDY    18   7  62 S5        30.18F WCI  11
CAMP DOUGLAS   CLOUDY    25  15  65 SW6       30.17F WCI  18
$$

WIZ011>013-019>022-031-037>040-048>050-310900-
NORTHEAST WISCONSIN

CITY           SKY/WX    TMP DP  RH WIND       PRES   REMARKS
ANTIGO         CLOUDY    15   8  72 SW8       30.11F WCI   5
SHAWANO        CLOUDY    20  10  64 CALM      30.20F
OCONTO         CLOUDY    19  11  69 MISG      30.21F
STURGEON BAY   CLOUDY    19  10  68 S7        30.23F WCI  10
GREEN BAY      CLOUDY    20  12  71 S5        30.22F WCI  13
MANITOWOC      CLOUDY    21  14  74 SW6       30.24F WCI  13
APPLETON       CLOUDY    19  10  68 S6        30.20F WCI  11
CLINTONVILLE   CLOUDY    19  10  68 S5        30.20F WCI  13
OSHKOSH        MOCLDY    15   9  76 S7        30.21F WCI   5
$$

WIZ032>034-041-042-053>061-310900-
SOUTHWEST WISCONSIN

CITY           SKY/WX    TMP DP  RH WIND       PRES   REMARKS
LA CROSSE      CLEAR     24  13  62 S8        30.18F WCI  15
SPARTA         CLOUDY    26  14  59 SW3       30.18F
VIROQUA        CLEAR     22  14  71 S10       30.16F WCI  11
BOSCOBEL       CLEAR     19  13  77 SW3       30.23F
PRAIRIE DU CHI CLEAR     23  13  65 CALM      30.23F
PLATTEVILLE    CLEAR     19  16  85 S7        30.23F WCI  10
$$

WIZ056-057-062-063-064-067-068-310900-
SOUTH CENTRAL WISCONSIN

CITY           SKY/WX    TMP DP  RH WIND       PRES   REMARKS
REEDSBURG      CLEAR     22  14  71 CALM      30.19F
BARABOO/DELLS  CLEAR     22  14  71 SW7       30.19F WCI  14
LONE ROCK      CLEAR     22  14  71 CALM      30.22F
MINERAL POINT  CLEAR     23  18  80 S8        30.21F WCI  14
MADISON        MOCLDY    24  15  68 SW3       30.23F
MIDDLETON      MOCLDY    26  15  65 SW8       30.22F WCI  17
WATERTOWN      PTCLDY    18  14  84 CALM      30.24F
MONROE         CLOUDY    25  19  80 SW15      30.23F WCI  12
JANESVILLE     CLOUDY    25  18  74 SW8       30.26F WCI  16
$$

WIZ051-052-058>065-066-070>072-310900-
SOUTHEAST WISCONSIN

CITY           SKY/WX    TMP DP  RH WIND       PRES   REMARKS
MILWAUKEE      MOCLDY    21  13  71 SW8       30.28F WCI  11
WAUKESHA       CLOUDY    18  12  79 S3        30.26F
MILWAUKEE/TIMM CLOUDY    21  12  68 SW6       30.27F WCI  14
RACINE         CLOUDY    21  14  74 SW6       30.31S WCI  13
BURLINGTON     CLOUDY    18  14  86 CALM      30.28S
KENOSHA        CLOUDY    21  15  78 S5        30.29F WCI  15
FOND DU LAC    MOCLDY    21  12  68 SW12      30.23S WCI   9
SHEBOYGAN      CLOUDY    20  13  74 SW6       30.24F WCI  12
WEST BEND      CLOUDY    21  14  73 SW6       30.23F WCI  14
JUNEAU         PTCLDY    17  13  82 S7        30.24F WCI   8
$$

LSZ147-162-310900-
LAKE SUPERIOR

STATION/POSITION TIME  TEMP    WIND        PRES    WAVE
                       AIR SEA DIR/SP/G            HT/PER
                 (UTC) (F)     (DEG/KT/KT) (MB)    (FT/S)
DEVILS ISLAND    0800   23     240/ 14/ 18 1020.9F
PORT WING        0700   20     210/  3/  6 1020.3F
SAXON HARBOR     0700   22     200/  6/ 12 1020.0F
$$

LMZ867-665-643>646-310900-
LAKE MICHIGAN

STATION/POSITION TIME  TEMP    WIND        PRES    WAVE
                       AIR SEA DIR/SP/G            HT/PER
                 (UTC) (F)     (DEG/KT/KT) (MB)    (FT/S)
NORTHPORT PIER   0717   20      CALM  /  5 1023.7F
SISTER BAY       0743   21     230/  8/ 10   N/A
KEWAUNEE LAKESHO 0700   21     240/  4/  6 1023.5F
SHEBOYGAN LAKESH 0800   22     210/  6/  8 1025.7F
PORT WASHINGTON  0740   21     240/  3/  7 1025.7F
MILWAUKEE LAKESH 0700   22     230/  8/ 11   N/A
KENOSHA   LAKESH 0800   21     200/  4/  8 1025.7F
$$

TC  - TEMPERATURE IN CELSIUS
VSB - VISIBILITY IN STATUTE MILES
WCI - WIND CHILL INDEX
HX  - HEAT INDEX




USA.gov is the U.S. government's official web portal to all federal, state and local government web resources and services.